Location: Melque
(41.0517°N, 4.4694°W)
Time: 20:52:37
(UTC+00:00)

Cosmos 1076 Rocket - Pass Details

Date: 11 December 2025
Orbit: 582 x 603 km, 82.5° (Epoch: 12 January)

Event Time Altitude Azimuth Distance (km) Brightness Sun altitude
Rises 17:39:59 0° 3° (N) 2,853 6.7 -9.4°
Reaches altitude 10° 17:42:25 10° 14° (NNE) 1,949 5.8 -9.8°
Maximum altitude 17:46:13 30° 76° (ENE) 1,098 4.3 -10.4°
Drops below altitude 10° 17:50:00 10° 137° (SE) 1,942 5.9 -11.1°
Sets 17:52:25 0° 149° (SSE) 2,840 6.8 -11.5°
